Year,Month,Day,Hour,Minute,Value (Times are PST for temperature in C)
2018,04,23,00,00,4.20
2018,04,23,00,01,4.20
2018,04,23,00,02,4.20
2018,04,23,00,03,4.20
2018,04,23,00,04,4.20
2018,04,23,00,05,4.20
2018,04,23,00,06,4.20
2018,04,23,00,07,4.10
2018,04,23,00,08,4.10
2018,04,23,00,09,4.10
2018,04,23,00,10,4.10
2018,04,23,00,11,4.10
2018,04,23,00,12,4.10
2018,04,23,00,13,4.10
2018,04,23,00,14,4.10
2018,04,23,00,15,4.10
2018,04,23,00,16,4.00
2018,04,23,00,17,4.00
2018,04,23,00,18,4.00
2018,04,23,00,19,4.00
2018,04,23,00,20,4.00
2018,04,23,00,21,4.00
2018,04,23,00,22,4.00
2018,04,23,00,23,3.90
2018,04,23,00,24,3.90
2018,04,23,00,25,3.90
2018,04,23,00,26,3.90
2018,04,23,00,27,3.90
2018,04,23,00,28,3.90
2018,04,23,00,29,3.90
2018,04,23,00,30,3.90
2018,04,23,00,31,3.80
2018,04,23,00,32,3.80
2018,04,23,00,33,3.80
2018,04,23,00,34,3.80
2018,04,23,00,35,3.80
2018,04,23,00,36,3.80
2018,04,23,00,37,3.80
2018,04,23,00,38,3.80
2018,04,23,00,39,3.80
2018,04,23,00,40,3.80
2018,04,23,00,41,3.70
2018,04,23,00,42,3.70
2018,04,23,00,43,3.70
2018,04,23,00,44,3.70
2018,04,23,00,45,3.70
2018,04,23,00,46,3.70
2018,04,23,00,47,3.70
2018,04,23,00,48,3.70
2018,04,23,00,49,3.70
2018,04,23,00,50,3.70
2018,04,23,00,51,3.70
2018,04,23,00,52,3.70
2018,04,23,00,53,3.60
2018,04,23,00,54,3.60
2018,04,23,00,55,3.60
2018,04,23,00,56,3.60
2018,04,23,00,57,3.60
2018,04,23,00,58,3.60
2018,04,23,00,59,3.60
2018,04,23,01,00,3.60
2018,04,23,01,01,3.60
2018,04,23,01,02,3.50
2018,04,23,01,03,3.50
2018,04,23,01,04,3.50
2018,04,23,01,05,3.50
2018,04,23,01,06,3.50
2018,04,23,01,07,3.50
2018,04,23,01,08,3.50
2018,04,23,01,09,3.50
2018,04,23,01,10,3.50
2018,04,23,01,11,3.50
2018,04,23,01,12,3.50
2018,04,23,01,13,3.50
2018,04,23,01,14,3.50
2018,04,23,01,15,3.40
2018,04,23,01,16,3.40
2018,04,23,01,17,3.40
2018,04,23,01,18,3.40
2018,04,23,01,19,3.40
2018,04,23,01,20,3.40
2018,04,23,01,21,3.30
2018,04,23,01,22,3.30
2018,04,23,01,23,3.30
2018,04,23,01,24,3.30
2018,04,23,01,25,3.30
2018,04,23,01,26,3.30
2018,04,23,01,27,3.30
2018,04,23,01,28,3.30
2018,04,23,01,29,3.30
2018,04,23,01,30,3.30
2018,04,23,01,31,3.30
2018,04,23,01,32,3.30
2018,04,23,01,33,3.30
2018,04,23,01,34,3.20
2018,04,23,01,35,3.20
2018,04,23,01,36,3.20
2018,04,23,01,37,3.20
2018,04,23,01,38,3.20
2018,04,23,01,39,3.20
2018,04,23,01,40,3.20
2018,04,23,01,41,3.20
2018,04,23,01,42,3.20
2018,04,23,01,43,3.10
2018,04,23,01,44,3.10
2018,04,23,01,45,3.10
2018,04,23,01,46,3.10
2018,04,23,01,47,3.10
2018,04,23,01,48,3.10
2018,04,23,01,49,3.10
2018,04,23,01,50,3.10
2018,04,23,01,51,3.10
2018,04,23,01,52,3.10
2018,04,23,01,53,3.00
2018,04,23,01,54,3.00
2018,04,23,01,55,3.00
2018,04,23,01,56,3.00
2018,04,23,01,57,3.00
2018,04,23,01,58,3.00
2018,04,23,01,59,3.00
2018,04,23,02,00,3.00
2018,04,23,02,01,3.00
2018,04,23,02,02,3.00
2018,04,23,02,03,3.00
2018,04,23,02,04,3.00
2018,04,23,02,05,3.00
2018,04,23,02,06,3.00
2018,04,23,02,07,3.00
2018,04,23,02,08,3.00
2018,04,23,02,09,3.00
2018,04,23,02,10,3.00
2018,04,23,02,11,3.00
2018,04,23,02,12,2.90
2018,04,23,02,13,2.90
2018,04,23,02,14,2.90
2018,04,23,02,15,2.90
2018,04,23,02,16,2.90
2018,04,23,02,17,2.90
2018,04,23,02,18,2.80
2018,04,23,02,19,2.80
2018,04,23,02,20,2.80
2018,04,23,02,21,2.80
2018,04,23,02,22,2.80
2018,04,23,02,23,2.80
2018,04,23,02,24,2.80
2018,04,23,02,25,2.80
2018,04,23,02,26,2.80
2018,04,23,02,27,2.80
2018,04,23,02,28,2.80
2018,04,23,02,29,2.80
2018,04,23,02,30,2.80
2018,04,23,02,31,2.70
2018,04,23,02,32,2.70
2018,04,23,02,33,2.70
2018,04,23,02,34,2.70
2018,04,23,02,35,2.70
2018,04,23,02,36,2.70
2018,04,23,02,37,2.60
2018,04,23,02,38,2.60
2018,04,23,02,39,2.60
2018,04,23,02,40,2.60
2018,04,23,02,41,2.60
2018,04,23,02,42,2.60
2018,04,23,02,43,2.60
2018,04,23,02,44,2.60
2018,04,23,02,45,2.60
2018,04,23,02,46,2.60
2018,04,23,02,47,2.60
2018,04,23,02,48,2.60
2018,04,23,02,49,2.50
2018,04,23,02,50,2.50
2018,04,23,02,51,2.40
2018,04,23,02,52,2.40
2018,04,23,02,53,2.40
2018,04,23,02,54,2.40
2018,04,23,02,55,2.40
2018,04,23,02,56,2.40
2018,04,23,02,57,2.40
2018,04,23,02,58,2.50
2018,04,23,02,59,2.50
2018,04,23,03,00,2.50
2018,04,23,03,01,2.50
2018,04,23,03,02,2.50
2018,04,23,03,03,2.50
2018,04,23,03,04,2.50
2018,04,23,03,05,2.50
2018,04,23,03,06,2.50
2018,04,23,03,07,2.50
2018,04,23,03,08,2.50
2018,04,23,03,09,2.40
2018,04,23,03,10,2.40
2018,04,23,03,11,2.40
2018,04,23,03,12,2.40
2018,04,23,03,13,2.40
2018,04,23,03,14,2.40
2018,04,23,03,15,2.40
2018,04,23,03,16,2.30
2018,04,23,03,17,2.30
2018,04,23,03,18,2.30
2018,04,23,03,19,2.30
2018,04,23,03,20,2.30
2018,04,23,03,21,2.30
2018,04,23,03,22,2.30
2018,04,23,03,23,2.20
2018,04,23,03,24,2.20
2018,04,23,03,25,2.20
2018,04,23,03,26,2.20
2018,04,23,03,27,2.20
2018,04,23,03,28,2.20
2018,04,23,03,29,2.20
2018,04,23,03,30,2.20
2018,04,23,03,31,2.20
2018,04,23,03,32,2.20
2018,04,23,03,33,2.20
2018,04,23,03,34,2.30
2018,04,23,03,35,2.30
2018,04,23,03,36,2.20
2018,04,23,03,37,2.30
2018,04,23,03,38,2.20
2018,04,23,03,39,2.20
2018,04,23,03,40,2.20
2018,04,23,03,41,2.20
2018,04,23,03,42,2.20
2018,04,23,03,43,2.20
2018,04,23,03,44,2.20
2018,04,23,03,45,2.20
2018,04,23,03,46,2.10
2018,04,23,03,47,2.10
2018,04,23,03,48,2.10
2018,04,23,03,49,2.10
2018,04,23,03,50,2.10
2018,04,23,03,51,2.10
2018,04,23,03,52,2.20
2018,04,23,03,53,2.20
2018,04,23,03,54,2.20
2018,04,23,03,55,2.20
2018,04,23,03,56,2.20
2018,04,23,03,57,2.20
2018,04,23,03,58,2.20
2018,04,23,03,59,2.20
2018,04,23,04,00,2.10
2018,04,23,04,01,2.20
2018,04,23,04,02,2.10
2018,04,23,04,03,2.10
2018,04,23,04,04,2.10
2018,04,23,04,05,2.10
2018,04,23,04,06,2.10
2018,04,23,04,07,2.10
2018,04,23,04,08,2.10
2018,04,23,04,09,2.10
2018,04,23,04,10,2.10
2018,04,23,04,11,2.20
2018,04,23,04,12,2.20
2018,04,23,04,13,2.20
2018,04,23,04,14,2.10
2018,04,23,04,15,2.10
2018,04,23,04,16,2.10
2018,04,23,04,17,2.10
2018,04,23,04,18,2.10
2018,04,23,04,19,2.10
2018,04,23,04,20,2.00
2018,04,23,04,21,2.00
2018,04,23,04,22,2.00
2018,04,23,04,23,2.00
2018,04,23,04,24,1.90
2018,04,23,04,25,1.90
2018,04,23,04,26,1.90
2018,04,23,04,27,1.90
2018,04,23,04,28,1.90
2018,04,23,04,29,1.90
2018,04,23,04,30,1.80
2018,04,23,04,31,1.80
2018,04,23,04,32,1.80
2018,04,23,04,33,1.80
2018,04,23,04,34,1.80
2018,04,23,04,35,1.80
2018,04,23,04,36,1.80
2018,04,23,04,37,1.80
2018,04,23,04,38,1.80
2018,04,23,04,39,1.70
2018,04,23,04,40,1.70
2018,04,23,04,41,1.70
2018,04,23,04,42,1.70
2018,04,23,04,43,1.60
2018,04,23,04,44,1.60
2018,04,23,04,45,1.60
2018,04,23,04,46,1.60
2018,04,23,04,47,1.70
2018,04,23,04,48,1.70
2018,04,23,04,49,1.70
2018,04,23,04,50,1.70
2018,04,23,04,51,1.70
2018,04,23,04,52,1.70
2018,04,23,04,53,1.70
2018,04,23,04,54,1.70
2018,04,23,04,55,1.70
2018,04,23,04,56,1.70
2018,04,23,04,57,1.70
2018,04,23,04,58,1.70
2018,04,23,04,59,1.70
2018,04,23,05,00,1.60
2018,04,23,05,01,1.60
2018,04,23,05,02,1.60
2018,04,23,05,03,1.60
2018,04,23,05,04,1.60
2018,04,23,05,05,1.60
2018,04,23,05,06,1.50
2018,04,23,05,07,1.50
2018,04,23,05,08,1.50
2018,04,23,05,09,1.40
2018,04,23,05,10,1.40
2018,04,23,05,11,1.40
2018,04,23,05,12,1.30
2018,04,23,05,13,1.30
2018,04,23,05,14,1.30
2018,04,23,05,15,1.30
2018,04,23,05,16,1.30
2018,04,23,05,17,1.30
2018,04,23,05,18,1.30
2018,04,23,05,19,1.30
2018,04,23,05,20,1.30
2018,04,23,05,21,1.30
2018,04,23,05,22,1.30
2018,04,23,05,23,1.30
2018,04,23,05,24,1.30
2018,04,23,05,25,1.30
2018,04,23,05,26,1.30
2018,04,23,05,27,1.30
2018,04,23,05,28,1.30
2018,04,23,05,29,1.30
2018,04,23,05,30,1.30
2018,04,23,05,31,1.30
2018,04,23,05,32,1.30
2018,04,23,05,33,1.30
2018,04,23,05,34,1.30
2018,04,23,05,35,1.40
2018,04,23,05,36,1.40
2018,04,23,05,37,1.40
2018,04,23,05,38,1.50
2018,04,23,05,39,1.50
2018,04,23,05,40,1.50
2018,04,23,05,41,1.60
2018,04,23,05,42,1.60
2018,04,23,05,43,1.60
2018,04,23,05,44,1.60
2018,04,23,05,45,1.60
2018,04,23,05,46,1.60
2018,04,23,05,47,1.60
2018,04,23,05,48,1.70
2018,04,23,05,49,1.70
2018,04,23,05,50,1.70
2018,04,23,05,51,1.70
2018,04,23,05,52,1.70
2018,04,23,05,53,1.70
2018,04,23,05,54,1.70
2018,04,23,05,55,1.70
2018,04,23,05,56,1.70
2018,04,23,05,57,1.40
2018,04,23,05,58,1.30
2018,04,23,05,59,1.20
2018,04,23,06,00,1.20
2018,04,23,06,01,1.20
2018,04,23,06,02,1.20
2018,04,23,06,03,1.20
2018,04,23,06,04,1.20
2018,04,23,06,05,1.20
2018,04,23,06,06,1.20
2018,04,23,06,07,1.20
2018,04,23,06,08,1.20
2018,04,23,06,09,1.20
2018,04,23,06,10,1.20
2018,04,23,06,11,1.10
2018,04,23,06,12,1.10
2018,04,23,06,13,1.10
2018,04,23,06,14,1.10
2018,04,23,06,15,1.10
2018,04,23,06,16,1.10
2018,04,23,06,17,1.10
2018,04,23,06,18,1.10
2018,04,23,06,19,1.00
2018,04,23,06,20,1.00
2018,04,23,06,21,1.10
2018,04,23,06,22,1.00
2018,04,23,06,23,1.10
2018,04,23,06,24,1.00
2018,04,23,06,25,1.10
2018,04,23,06,26,1.10
2018,04,23,06,27,1.10
2018,04,23,06,28,1.10
2018,04,23,06,29,1.10
2018,04,23,06,30,1.20
2018,04,23,06,31,1.30
2018,04,23,06,32,1.30
2018,04,23,06,33,1.40
2018,04,23,06,34,1.40
2018,04,23,06,35,1.40
2018,04,23,06,36,1.50
2018,04,23,06,37,1.50
2018,04,23,06,38,1.60
2018,04,23,06,39,1.60
2018,04,23,06,40,1.60
2018,04,23,06,41,1.70
2018,04,23,06,42,1.70
2018,04,23,06,43,1.80
2018,04,23,06,44,1.80
2018,04,23,06,45,1.90
2018,04,23,06,46,1.90
2018,04,23,06,47,1.90
2018,04,23,06,48,1.90
2018,04,23,06,49,1.90
2018,04,23,06,50,1.90
2018,04,23,06,51,2.00
2018,04,23,06,52,2.00
2018,04,23,06,53,2.00
2018,04,23,06,54,2.10
2018,04,23,06,55,2.10
2018,04,23,06,56,2.20
2018,04,23,06,57,2.20
2018,04,23,06,58,2.30
2018,04,23,06,59,2.30
2018,04,23,07,00,2.40
2018,04,23,07,01,2.50
2018,04,23,07,02,2.60
2018,04,23,07,03,2.70
2018,04,23,07,04,2.90
2018,04,23,07,05,3.00
2018,04,23,07,06,3.20
2018,04,23,07,07,3.30
2018,04,23,07,08,3.40
2018,04,23,07,09,3.60
2018,04,23,07,10,3.70
2018,04,23,07,11,3.90
2018,04,23,07,12,4.00
2018,04,23,07,13,4.10
2018,04,23,07,14,4.20
2018,04,23,07,15,4.30
2018,04,23,07,16,4.40
2018,04,23,07,17,4.40
2018,04,23,07,18,4.50
2018,04,23,07,19,4.60
2018,04,23,07,20,4.60
2018,04,23,07,21,4.70
2018,04,23,07,22,4.80
2018,04,23,07,23,4.90
2018,04,23,07,24,4.90
2018,04,23,07,25,5.00
2018,04,23,07,26,5.10
2018,04,23,07,27,5.20
2018,04,23,07,28,5.20
2018,04,23,07,29,5.30
2018,04,23,07,30,5.30
2018,04,23,07,31,5.40
2018,04,23,07,32,5.50
2018,04,23,07,33,5.60
2018,04,23,07,34,5.70
2018,04,23,07,35,5.80
2018,04,23,07,36,5.90
2018,04,23,07,37,6.00
2018,04,23,07,38,6.10
2018,04,23,07,39,6.20
2018,04,23,07,40,6.30
2018,04,23,07,41,6.40
2018,04,23,07,42,6.50
2018,04,23,07,43,6.60
2018,04,23,07,44,6.70
2018,04,23,07,45,6.80
2018,04,23,07,46,6.90
2018,04,23,07,47,7.00
2018,04,23,07,48,7.20
2018,04,23,07,49,7.30
2018,04,23,07,50,7.50
2018,04,23,07,51,7.60
2018,04,23,07,52,7.70
2018,04,23,07,53,7.70
2018,04,23,07,54,7.80
2018,04,23,07,55,7.90
2018,04,23,07,56,7.90
2018,04,23,07,57,8.00
2018,04,23,07,58,8.10
2018,04,23,07,59,8.10
2018,04,23,08,00,8.20
2018,04,23,08,01,8.20
2018,04,23,08,02,8.30
2018,04,23,08,03,8.40
2018,04,23,08,04,8.50
2018,04,23,08,05,8.60
2018,04,23,08,06,8.70
2018,04,23,08,07,8.80
2018,04,23,08,08,8.80
2018,04,23,08,09,8.90
2018,04,23,08,10,9.00
2018,04,23,08,11,9.00
2018,04,23,08,12,9.10
2018,04,23,08,13,9.20
2018,04,23,08,14,9.30
2018,04,23,08,15,9.30
2018,04,23,08,16,9.40
2018,04,23,08,17,9.50
2018,04,23,08,18,9.60
2018,04,23,08,19,9.70
2018,04,23,08,20,9.80
2018,04,23,08,21,10.00
2018,04,23,08,22,10.10
2018,04,23,08,23,10.20
2018,04,23,08,24,10.30
2018,04,23,08,25,10.40
2018,04,23,08,26,10.40
2018,04,23,08,27,10.40
2018,04,23,08,28,10.40
2018,04,23,08,29,10.50
2018,04,23,08,30,10.60
2018,04,23,08,31,10.60
2018,04,23,08,32,10.70
2018,04,23,08,33,10.70
2018,04,23,08,34,10.80
2018,04,23,08,35,10.80
2018,04,23,08,36,10.90
2018,04,23,08,37,10.90
2018,04,23,08,38,11.00
2018,04,23,08,39,11.10
2018,04,23,08,40,11.20
2018,04,23,08,41,11.20
2018,04,23,08,42,11.20
2018,04,23,08,43,11.20
2018,04,23,08,44,11.30
2018,04,23,08,45,11.30
2018,04,23,08,46,11.40
2018,04,23,08,47,11.40
2018,04,23,08,48,11.50
2018,04,23,08,49,11.60
2018,04,23,08,50,11.60
2018,04,23,08,51,11.70
2018,04,23,08,52,11.70
2018,04,23,08,53,11.70
2018,04,23,08,54,11.70
2018,04,23,08,55,11.70
2018,04,23,08,56,11.80
2018,04,23,08,57,11.80
2018,04,23,08,58,11.80
2018,04,23,08,59,11.80
2018,04,23,09,00,11.80
2018,04,23,09,01,11.90
2018,04,23,09,02,11.90
2018,04,23,09,03,12.00
2018,04,23,09,04,11.90
2018,04,23,09,05,11.90
2018,04,23,09,06,12.00
2018,04,23,09,07,12.00
2018,04,23,09,08,12.00
2018,04,23,09,09,12.10
2018,04,23,09,10,12.10
2018,04,23,09,11,12.20
2018,04,23,09,12,12.20
2018,04,23,09,13,12.30
2018,04,23,09,14,12.30
2018,04,23,09,15,12.30
2018,04,23,09,16,12.30
2018,04,23,09,17,12.30
2018,04,23,09,18,12.30
2018,04,23,09,19,12.30
2018,04,23,09,20,12.30
2018,04,23,09,21,12.30
2018,04,23,09,22,12.30
2018,04,23,09,23,12.30
2018,04,23,09,24,12.30
2018,04,23,09,25,12.40
2018,04,23,09,26,12.40
2018,04,23,09,27,12.40
2018,04,23,09,28,12.40
2018,04,23,09,29,12.50
2018,04,23,09,30,12.50
2018,04,23,09,31,12.50
2018,04,23,09,32,12.60
2018,04,23,09,33,12.60
2018,04,23,09,34,12.70
2018,04,23,09,35,12.70
2018,04,23,09,36,12.70
2018,04,23,09,37,12.70
2018,04,23,09,38,12.70
2018,04,23,09,39,12.80
2018,04,23,09,40,12.80
2018,04,23,09,41,12.80
2018,04,23,09,42,12.80
2018,04,23,09,43,12.80
2018,04,23,09,44,12.80
2018,04,23,09,45,12.80
2018,04,23,09,46,12.80
2018,04,23,09,47,12.80
2018,04,23,09,48,12.90
2018,04,23,09,49,12.90
2018,04,23,09,50,12.90
2018,04,23,09,51,12.90
2018,04,23,09,52,13.00
2018,04,23,09,53,13.10
2018,04,23,09,54,13.10
2018,04,23,09,55,13.10
2018,04,23,09,56,13.00
2018,04,23,09,57,13.00
2018,04,23,09,58,12.90
2018,04,23,09,59,13.00
2018,04,23,10,00,13.10
2018,04,23,10,01,13.10
2018,04,23,10,02,13.10
2018,04,23,10,03,13.10
2018,04,23,10,04,13.10
2018,04,23,10,05,13.10
2018,04,23,10,06,13.10
2018,04,23,10,07,13.10
2018,04,23,10,08,13.20
2018,04,23,10,09,13.20
2018,04,23,10,10,13.30
2018,04,23,10,11,13.40
2018,04,23,10,12,13.50
2018,04,23,10,13,13.60
2018,04,23,10,14,13.60
2018,04,23,10,15,13.60
2018,04,23,10,16,13.60
2018,04,23,10,17,13.60
2018,04,23,10,18,13.60
2018,04,23,10,19,13.60
2018,04,23,10,20,13.60
2018,04,23,10,21,13.70
2018,04,23,10,22,13.80
2018,04,23,10,23,13.80
2018,04,23,10,24,13.90
2018,04,23,10,25,14.00
2018,04,23,10,26,14.10
2018,04,23,10,27,14.10
2018,04,23,10,28,14.10
2018,04,23,10,29,14.10
2018,04,23,10,30,14.10
2018,04,23,10,31,14.10
2018,04,23,10,32,14.10
2018,04,23,10,33,14.10
2018,04,23,10,34,14.20
2018,04,23,10,35,14.20
2018,04,23,10,36,14.20
2018,04,23,10,37,14.10
2018,04,23,10,38,13.90
2018,04,23,10,39,13.80
2018,04,23,10,40,13.80
2018,04,23,10,41,13.70
2018,04,23,10,42,13.70
2018,04,23,10,43,13.80
2018,04,23,10,44,13.80
2018,04,23,10,45,13.80
2018,04,23,10,46,13.80
2018,04,23,10,47,13.90
2018,04,23,10,48,13.90
2018,04,23,10,49,14.00
2018,04,23,10,50,14.10
2018,04,23,10,51,14.20
2018,04,23,10,52,14.30
2018,04,23,10,53,14.30
2018,04,23,10,54,14.30
2018,04,23,10,55,14.40
2018,04,23,10,56,14.40
2018,04,23,10,57,14.50
2018,04,23,10,58,14.50
2018,04,23,10,59,14.60
2018,04,23,11,00,14.80
2018,04,23,11,01,14.90
2018,04,23,11,02,14.90
2018,04,23,11,03,14.90
2018,04,23,11,04,14.90
2018,04,23,11,05,14.90
2018,04,23,11,06,14.80
2018,04,23,11,07,14.80
2018,04,23,11,08,14.80
2018,04,23,11,09,14.80
2018,04,23,11,10,14.80
2018,04,23,11,11,14.80
2018,04,23,11,12,14.80
2018,04,23,11,13,14.70
2018,04,23,11,14,14.80
2018,04,23,11,15,14.80
2018,04,23,11,16,14.90
2018,04,23,11,17,14.90
2018,04,23,11,18,15.00
2018,04,23,11,19,15.00
2018,04,23,11,20,15.00
2018,04,23,11,21,15.10
2018,04,23,11,22,15.00
2018,04,23,11,23,15.00
2018,04,23,11,24,15.00
2018,04,23,11,25,14.90
2018,04,23,11,26,14.90
2018,04,23,11,27,15.00
2018,04,23,11,28,15.00
2018,04,23,11,29,15.00
2018,04,23,11,30,15.00
2018,04,23,11,31,15.00
2018,04,23,11,32,15.00
2018,04,23,11,33,14.90
2018,04,23,11,34,14.90
2018,04,23,11,35,15.00
2018,04,23,11,36,15.10
2018,04,23,11,37,15.10
2018,04,23,11,38,15.00
2018,04,23,11,39,15.00
2018,04,23,11,40,14.90
2018,04,23,11,41,15.00
2018,04,23,11,42,15.10
2018,04,23,11,43,15.20
2018,04,23,11,44,15.30
2018,04,23,11,45,15.40
2018,04,23,11,46,15.50
2018,04,23,11,47,15.50
2018,04,23,11,48,15.50
2018,04,23,11,49,15.50
2018,04,23,11,50,15.50
2018,04,23,11,51,15.50
2018,04,23,11,52,15.60
2018,04,23,11,53,15.60
2018,04,23,11,54,15.60
2018,04,23,11,55,15.70
2018,04,23,11,56,15.80
2018,04,23,11,57,15.80
2018,04,23,11,58,15.80
2018,04,23,11,59,15.70
2018,04,23,12,00,15.80
2018,04,23,12,01,15.80
2018,04,23,12,02,15.90
2018,04,23,12,03,15.80
2018,04,23,12,04,15.80
2018,04,23,12,05,15.80
2018,04,23,12,06,15.90
2018,04,23,12,07,16.00
2018,04,23,12,08,16.10
2018,04,23,12,09,16.10
2018,04,23,12,10,16.10
2018,04,23,12,11,16.10
2018,04,23,12,12,16.10
2018,04,23,12,13,16.00
2018,04,23,12,14,15.90
2018,04,23,12,15,16.00
2018,04,23,12,16,16.00
2018,04,23,12,17,16.10
2018,04,23,12,18,16.10
2018,04,23,12,19,16.20
2018,04,23,12,20,16.20
2018,04,23,12,21,16.20
2018,04,23,12,22,16.20
2018,04,23,12,23,16.20
2018,04,23,12,24,16.20
2018,04,23,12,25,16.20
2018,04,23,12,26,16.20
2018,04,23,12,27,16.20
2018,04,23,12,28,16.10
2018,04,23,12,29,16.00
2018,04,23,12,30,15.90
2018,04,23,12,31,15.90
2018,04,23,12,32,15.90
2018,04,23,12,33,16.10
2018,04,23,12,34,16.20
2018,04,23,12,35,16.20
2018,04,23,12,36,16.30
2018,04,23,12,37,16.30
2018,04,23,12,38,16.40
2018,04,23,12,39,16.40
2018,04,23,12,40,16.40
2018,04,23,12,41,16.40
2018,04,23,12,42,16.40
2018,04,23,12,43,16.50
2018,04,23,12,44,16.50
2018,04,23,12,45,16.40
2018,04,23,12,46,16.30
2018,04,23,12,47,16.30
2018,04,23,12,48,16.30
2018,04,23,12,49,16.30
2018,04,23,12,50,16.30
2018,04,23,12,51,16.40
2018,04,23,12,52,16.50
2018,04,23,12,53,16.50
2018,04,23,12,54,16.60
2018,04,23,12,55,16.60
2018,04,23,12,56,16.70
2018,04,23,12,57,16.70
2018,04,23,12,58,16.60
2018,04,23,12,59,16.50
2018,04,23,13,00,16.50
2018,04,23,13,01,16.50
2018,04,23,13,02,16.50
2018,04,23,13,03,16.60
2018,04,23,13,04,16.70
2018,04,23,13,05,16.80
2018,04,23,13,06,16.80
2018,04,23,13,07,16.80
2018,04,23,13,08,16.80
2018,04,23,13,09,16.80
2018,04,23,13,10,16.80
2018,04,23,13,11,16.80
2018,04,23,13,12,16.80
2018,04,23,13,13,16.80
2018,04,23,13,14,16.90
2018,04,23,13,15,16.90
2018,04,23,13,16,16.90
2018,04,23,13,17,16.80
2018,04,23,13,18,16.70
2018,04,23,13,19,16.70
2018,04,23,13,20,16.80
2018,04,23,13,21,16.80
2018,04,23,13,22,16.90
2018,04,23,13,23,16.90
2018,04,23,13,24,16.90
2018,04,23,13,25,17.00
2018,04,23,13,26,16.90
2018,04,23,13,27,16.90
2018,04,23,13,28,16.80
2018,04,23,13,29,16.80
2018,04,23,13,30,16.80
2018,04,23,13,31,16.70
2018,04,23,13,32,16.70
2018,04,23,13,33,16.70
2018,04,23,13,34,16.70
2018,04,23,13,35,16.60
2018,04,23,13,36,16.60
2018,04,23,13,37,16.70
2018,04,23,13,38,16.80
2018,04,23,13,39,16.90
2018,04,23,13,40,16.90
2018,04,23,13,41,17.00
2018,04,23,13,42,17.10
2018,04,23,13,43,17.20
2018,04,23,13,44,17.20
2018,04,23,13,45,17.20
2018,04,23,13,46,17.10
2018,04,23,13,47,17.10
2018,04,23,13,48,17.10
2018,04,23,13,49,17.10
2018,04,23,13,50,17.10
2018,04,23,13,51,17.10
2018,04,23,13,52,17.10
2018,04,23,13,53,17.20
2018,04,23,13,54,17.30
2018,04,23,13,55,17.30
2018,04,23,13,56,17.30
2018,04,23,13,57,17.20
2018,04,23,13,58,17.20
2018,04,23,13,59,17.20
2018,04,23,14,00,17.30
2018,04,23,14,01,17.30
2018,04,23,14,02,17.30
2018,04,23,14,03,17.30
2018,04,23,14,04,17.30
2018,04,23,14,05,17.40
2018,04,23,14,06,17.40
2018,04,23,14,07,17.40
2018,04,23,14,08,17.40
2018,04,23,14,09,17.50
2018,04,23,14,10,17.50
2018,04,23,14,11,17.40
2018,04,23,14,12,17.30
2018,04,23,14,13,17.30
2018,04,23,14,14,17.40
2018,04,23,14,15,17.40
2018,04,23,14,16,17.50
2018,04,23,14,17,17.60
2018,04,23,14,18,17.60
2018,04,23,14,19,17.60
2018,04,23,14,20,17.60
2018,04,23,14,21,17.60
2018,04,23,14,22,17.60
2018,04,23,14,23,17.60
2018,04,23,14,24,17.60
2018,04,23,14,25,17.70
2018,04,23,14,26,17.70
2018,04,23,14,27,17.70
2018,04,23,14,28,17.80
2018,04,23,14,29,17.90
2018,04,23,14,30,18.00
2018,04,23,14,31,18.10
2018,04,23,14,32,18.10
2018,04,23,14,33,18.20
2018,04,23,14,34,18.20
2018,04,23,14,35,18.30
2018,04,23,14,36,18.30
2018,04,23,14,37,18.20
2018,04,23,14,38,18.10
2018,04,23,14,39,18.10
2018,04,23,14,40,18.10
2018,04,23,14,41,18.10
2018,04,23,14,42,18.10
2018,04,23,14,43,18.10
2018,04,23,14,44,18.10
2018,04,23,14,45,18.20
2018,04,23,14,46,18.20
2018,04,23,14,47,18.20
2018,04,23,14,48,18.20
2018,04,23,14,49,18.20
2018,04,23,14,50,18.20
2018,04,23,14,51,18.20
2018,04,23,14,52,18.20
2018,04,23,14,53,18.30
2018,04,23,14,54,18.30
2018,04,23,14,55,18.40
2018,04,23,14,56,18.40
2018,04,23,14,57,18.50
2018,04,23,14,58,18.50
2018,04,23,14,59,18.60
2018,04,23,15,00,18.60
2018,04,23,15,01,18.60
2018,04,23,15,02,18.50
2018,04,23,15,03,18.50
2018,04,23,15,04,18.40
2018,04,23,15,05,18.40
2018,04,23,15,06,18.50
2018,04,23,15,07,18.50
2018,04,23,15,08,18.60
2018,04,23,15,09,18.60
2018,04,23,15,10,18.60
2018,04,23,15,11,18.60
2018,04,23,15,12,18.60
2018,04,23,15,13,18.60
2018,04,23,15,14,18.60
2018,04,23,15,15,18.60
2018,04,23,15,16,18.70
2018,04,23,15,17,18.70
2018,04,23,15,18,18.70
2018,04,23,15,19,18.70
2018,04,23,15,20,18.70
2018,04,23,15,21,18.80
2018,04,23,15,22,18.80
2018,04,23,15,23,18.80
2018,04,23,15,24,18.80
2018,04,23,15,25,18.80
2018,04,23,15,26,18.80
2018,04,23,15,27,18.80
2018,04,23,15,28,18.80
2018,04,23,15,29,18.90
2018,04,23,15,30,18.90
2018,04,23,15,31,18.90
2018,04,23,15,32,18.90
2018,04,23,15,33,18.90
2018,04,23,15,34,19.00
2018,04,23,15,35,19.00
2018,04,23,15,36,19.00
2018,04,23,15,37,19.10
2018,04,23,15,38,19.10
2018,04,23,15,39,19.10
2018,04,23,15,40,19.10
2018,04,23,15,41,19.10
2018,04,23,15,42,19.10
2018,04,23,15,43,19.10
2018,04,23,15,44,19.10
2018,04,23,15,45,19.10
2018,04,23,15,46,19.10
2018,04,23,15,47,19.00
2018,04,23,15,48,18.90
2018,04,23,15,49,18.80
2018,04,23,15,50,18.70
2018,04,23,15,51,18.70
2018,04,23,15,52,18.60
2018,04,23,15,53,18.60
2018,04,23,15,54,18.50
2018,04,23,15,55,18.50
2018,04,23,15,56,18.40
2018,04,23,15,57,18.50
2018,04,23,15,58,18.50
2018,04,23,15,59,18.60
2018,04,23,16,00,18.70
2018,04,23,16,01,18.70
2018,04,23,16,02,18.80
2018,04,23,16,03,18.80
2018,04,23,16,04,18.90
2018,04,23,16,05,18.90
2018,04,23,16,06,19.00
2018,04,23,16,07,19.00
2018,04,23,16,08,19.10
2018,04,23,16,09,19.10
2018,04,23,16,10,19.10
2018,04,23,16,11,19.10
2018,04,23,16,12,19.10
2018,04,23,16,13,19.10
2018,04,23,16,14,19.10
2018,04,23,16,15,19.10
2018,04,23,16,16,19.10
2018,04,23,16,17,19.10
2018,04,23,16,18,19.10
2018,04,23,16,19,19.20
2018,04,23,16,20,19.20
2018,04,23,16,21,19.10
2018,04,23,16,22,19.10
2018,04,23,16,23,19.10
2018,04,23,16,24,19.10
2018,04,23,16,25,19.10
2018,04,23,16,26,19.00
2018,04,23,16,27,18.90
2018,04,23,16,28,18.90
2018,04,23,16,29,18.80
2018,04,23,16,30,18.80
2018,04,23,16,31,18.80
2018,04,23,16,32,18.80
2018,04,23,16,33,18.80
2018,04,23,16,34,18.80
2018,04,23,16,35,18.80
2018,04,23,16,36,18.80
2018,04,23,16,37,18.80
2018,04,23,16,38,18.80
2018,04,23,16,39,18.70
2018,04,23,16,40,18.70
2018,04,23,16,41,18.60
2018,04,23,16,42,18.60
2018,04,23,16,43,18.50
2018,04,23,16,44,18.50
2018,04,23,16,45,18.40
2018,04,23,16,46,18.40
2018,04,23,16,47,18.50
2018,04,23,16,48,18.50
2018,04,23,16,49,18.50
2018,04,23,16,50,18.50
2018,04,23,16,51,18.50
2018,04,23,16,52,18.50
2018,04,23,16,53,18.50
2018,04,23,16,54,18.50
2018,04,23,16,55,18.50
2018,04,23,16,56,18.50
2018,04,23,16,57,18.60
2018,04,23,16,58,18.60
2018,04,23,16,59,18.60
2018,04,23,17,00,18.60
2018,04,23,17,01,18.50
2018,04,23,17,02,18.50
2018,04,23,17,03,18.40
2018,04,23,17,04,18.40
2018,04,23,17,05,18.30
2018,04,23,17,06,18.30
2018,04,23,17,07,18.30
2018,04,23,17,08,18.30
2018,04,23,17,09,18.20
2018,04,23,17,10,18.20
2018,04,23,17,11,18.20
2018,04,23,17,12,18.20
2018,04,23,17,13,18.20
2018,04,23,17,14,18.20
2018,04,23,17,15,18.20
2018,04,23,17,16,18.20
2018,04,23,17,17,18.20
2018,04,23,17,18,18.20
2018,04,23,17,19,18.20
2018,04,23,17,20,18.20
2018,04,23,17,21,18.20
2018,04,23,17,22,18.20
2018,04,23,17,23,18.20
2018,04,23,17,24,18.20
2018,04,23,17,25,18.20
2018,04,23,17,26,18.20
2018,04,23,17,27,18.20
2018,04,23,17,28,18.20
2018,04,23,17,29,18.20
2018,04,23,17,30,18.20
2018,04,23,17,31,18.20
2018,04,23,17,32,18.20
2018,04,23,17,33,18.30
2018,04,23,17,34,18.30
2018,04,23,17,35,18.30
2018,04,23,17,36,18.30
2018,04,23,17,37,18.30
2018,04,23,17,38,18.30
2018,04,23,17,39,18.30
2018,04,23,17,40,18.30
2018,04,23,17,41,18.20